When you browse on this site, cookies collect data to enhance your experience and personalize the content and advertising you see.
Visit our Privacy Policy to learn more. By continuing to use the site, you agree to this use of cookies and data.
  • In Netherlands
  • List of Countries
  • For 7 days
  • Water Temperature
  • Satellite Maps
  • Weather Map
  • Weather Widgets
  • user-avatar
    Login

    Hourly Weather Winchester

    Today, 20 June, Thursday

    Time Temperature Precipitation Wind Pressure Humidity
    00:00 +10°C° 0 mm 4 mps 752 mmHg 93%
    01:00 +9°C° 0 mm 3 mps 752 mmHg 94%
    02:00 +9°C° 0 mm 3 mps 752 mmHg 94%
    03:00 +8°C° 0 mm 3 mps 752 mmHg 94%
    04:00 +9°C° 0 mm 3 mps 753 mmHg 94%
    05:00 +10°C° 0 mm 3 mps 753 mmHg 93%
    06:00 +11°C° 0 mm 4 mps 753 mmHg 93%
    07:00 +12°C° 0 mm 4 mps 754 mmHg 88%
    08:00 +13°C° 0 mm 5 mps 754 mmHg 83%
    09:00 +15°C° 0 mm 5 mps 754 mmHg 77%
    10:00 +15°C° 0.2 mm 5 mps 754 mmHg 77%
    11:00 +15°C° 0.2 mm 5 mps 755 mmHg 77%
    12:00 +16°C° 0.2 mm 5 mps 755 mmHg 76%
    13:00 +15°C° 0.3 mm 5 mps 755 mmHg 78%
    14:00 +15°C° 0.3 mm 5 mps 755 mmHg 80%
    15:00 +15°C° 0.3 mm 5 mps 755 mmHg 82%
    16:00 +15°C° 0.1 mm 5 mps 755 mmHg 81%
    17:00 +15°C° 0.1 mm 4 mps 755 mmHg 81%
    18:00 +15°C° 0.1 mm 4 mps 756 mmHg 81%
    19:00 +13°C° 0 mm 3 mps 756 mmHg 84%
    20:00 +12°C° 0 mm 3 mps 756 mmHg 87%
    21:00 +10°C° 0 mm 2 mps 756 mmHg 91%
    22:00 +9°C° 0 mm 2 mps 757 mmHg 91%
    23:00 +9°C° 0 mm 2 mps 757 mmHg 91%

    Tomorrow, 21 June, Friday

    Time Temperature Precipitation Wind Pressure Humidity
    00:00 +8°C° 0 mm 2 mps 757 mmHg 92%
    01:00 +8°C° 0 mm 2 mps 757 mmHg 92%
    02:00 +7°C° 0 mm 2 mps 757 mmHg 93%
    03:00 +7°C° 0 mm 2 mps 758 mmHg 93%
    04:00 +8°C° 0 mm 2 mps 758 mmHg 92%
    05:00 +9°C° 0 mm 2 mps 758 mmHg 91%
    06:00 +9°C° 0 mm 2 mps 758 mmHg 89%
    07:00 +12°C° 0 mm 2 mps 759 mmHg 84%
    08:00 +13°C° 0 mm 3 mps 759 mmHg 78%
    09:00 +16°C° 0 mm 3 mps 759 mmHg 72%
    10:00 +16°C° 0 mm 3 mps 759 mmHg 70%
    11:00 +17°C° 0 mm 2 mps 760 mmHg 69%
    12:00 +17°C° 0 mm 2 mps 760 mmHg 67%
    13:00 +17°C° 0.1 mm 2 mps 760 mmHg 66%
    14:00 +17°C° 0.1 mm 2 mps 760 mmHg 66%
    15:00 +18°C° 0.1 mm 2 mps 760 mmHg 66%
    16:00 +17°C° 0 mm 2 mps 760 mmHg 69%
    17:00 +17°C° 0 mm 2 mps 760 mmHg 71%
    18:00 +17°C° 0 mm 2 mps 760 mmHg 74%
    19:00 +15°C° 0 mm 2 mps 760 mmHg 78%
    20:00 +13°C° 0 mm 2 mps 761 mmHg 81%
    21:00 +12°C° 0 mm 1 mps 761 mmHg 85%
    22:00 +11°C° 0 mm 1 mps 761 mmHg 86%
    23:00 +10°C° 0 mm 1 mps 761 mmHg 87%

    Day after tomorrow, 22 June, Saturday

    Time Temperature Precipitation Wind Pressure Humidity
    00:00 +10°C° 0 mm 1 mps 761 mmHg 89%
    01:00 +10°C° 0 mm 1 mps 761 mmHg 89%
    02:00 +10°C° 0 mm 1 mps 761 mmHg 89%
    03:00 +10°C° 0 mm 1 mps 761 mmHg 90%
    04:00 +11°C° 0 mm 1 mps 761 mmHg 88%
    05:00 +12°C° 0 mm 1 mps 761 mmHg 87%
    06:00 +13°C° 0 mm 1 mps 761 mmHg 85%
    07:00 +14°C° 0 mm 2 mps 761 mmHg 81%
    08:00 +16°C° 0 mm 2 mps 761 mmHg 77%
    09:00 +18°C° 0 mm 3 mps 761 mmHg 73%
    10:00 +18°C° 0.1 mm 3 mps 761 mmHg 71%
    11:00 +19°C° 0.1 mm 3 mps 760 mmHg 68%
    12:00 +19°C° 0.1 mm 4 mps 760 mmHg 66%
    13:00 +20°C° 0 mm 4 mps 760 mmHg 64%
    14:00 +20°C° 0 mm 3 mps 760 mmHg 62%
    15:00 +20°C° 0 mm 3 mps 759 mmHg 60%
    16:00 +20°C° 0 mm 3 mps 759 mmHg 64%
    17:00 +19°C° 0 mm 3 mps 759 mmHg 68%
    18:00 +19°C° 0 mm 2 mps 759 mmHg 72%
    19:00 +17°C° 0 mm 2 mps 759 mmHg 78%
    20:00 +15°C° 0 mm 2 mps 759 mmHg 84%
    21:00 +14°C° 0 mm 2 mps 759 mmHg 90%
    22:00 +12°C° 0 mm 3 mps 759 mmHg 89%
    23:00 +12°C° 0 mm 3 mps 759 mmHg 89%

    23 June, Sunday

    Time Temperature Precipitation Wind Pressure Humidity
    00:00 +12°C° 0 mm 4 mps 759 mmHg 89%
    01:00 +12°C° 0 mm 4 mps 758 mmHg 87%
    02:00 +12°C° 0 mm 4 mps 758 mmHg 86%
    03:00 +12°C° 0 mm 4 mps 758 mmHg 84%
    04:00 +13°C° 0 mm 4 mps 758 mmHg 85%
    05:00 +14°C° 0 mm 3 mps 758 mmHg 86%
    06:00 +16°C° 0 mm 3 mps 758 mmHg 87%
    07:00 +17°C° 0 mm 3 mps 758 mmHg 85%
    08:00 +19°C° 0 mm 3 mps 758 mmHg 83%
    09:00 +20°C° 0 mm 4 mps 758 mmHg 81%
    10:00 +21°C° 0 mm 4 mps 758 mmHg 80%
    11:00 +21°C° 0 mm 5 mps 758 mmHg 79%
    12:00 +22°C° 0 mm 5 mps 758 mmHg 78%
    13:00 +22°C° 0.4 mm 5 mps 757 mmHg 78%
    14:00 +23°C° 0.4 mm 6 mps 757 mmHg 77%
    15:00 +23°C° 0.4 mm 6 mps 757 mmHg 77%
    16:00 +23°C° 0.3 mm 5 mps 757 mmHg 80%
    17:00 +22°C° 0.4 mm 5 mps 757 mmHg 82%
    18:00 +22°C° 0.4 mm 4 mps 757 mmHg 85%
    19:00 +21°C° 0.1 mm 4 mps 757 mmHg 87%
    20:00 +20°C° 0.1 mm 4 mps 757 mmHg 90%
    21:00 +19°C° 0.1 mm 4 mps 757 mmHg 92%
    22:00 +18°C° 0 mm 4 mps 757 mmHg 93%
    23:00 +18°C° 0 mm 4 mps 756 mmHg 93%

    24 June, Monday

    Time Temperature Precipitation Wind Pressure Humidity
    00:00 +18°C° 0 mm 4 mps 756 mmHg 93%
    01:00 +17°C° 0 mm 4 mps 756 mmHg 94%
    02:00 +17°C° 0 mm 3 mps 756 mmHg 95%
    03:00 +17°C° 0 mm 3 mps 756 mmHg 96%
    04:00 +18°C° 0 mm 3 mps 756 mmHg 95%
    05:00 +19°C° 0 mm 4 mps 756 mmHg 94%
    06:00 +19°C° 0 mm 4 mps 756 mmHg 94%
    07:00 +20°C° 0 mm 4 mps 756 mmHg 92%
    08:00 +21°C° 0 mm 3 mps 757 mmHg 89%
    09:00 +21°C° 0 mm 3 mps 757 mmHg 87%
    10:00 +21°C° 0.1 mm 3 mps 757 mmHg 87%
    11:00 +21°C° 0.1 mm 2 mps 757 mmHg 87%
    12:00 +21°C° 0.1 mm 2 mps 757 mmHg 87%
    13:00 +23°C° 0 mm 2 mps 757 mmHg 86%
    14:00 +23°C° 0 mm 2 mps 757 mmHg 85%
    15:00 +24°C° 0 mm 1 mps 757 mmHg 84%
    16:00 +24°C° 0.1 mm 1 mps 757 mmHg 84%
    17:00 +24°C° 0.1 mm 2 mps 757 mmHg 85%
    18:00 +24°C° 0.1 mm 2 mps 757 mmHg 85%
    19:00 +23°C° 0 mm 2 mps 757 mmHg 87%
    20:00 +23°C° 0 mm 2 mps 758 mmHg 90%
    21:00 +21°C° 0 mm 3 mps 758 mmHg 92%
    22:00 +20°C° 0.7 mm 3 mps 757 mmHg 93%
    23:00 +20°C° 0.7 mm 3 mps 757 mmHg 93%

    25 June, Tuesday

    Time Temperature Precipitation Wind Pressure Humidity
    00:00 +20°C° 0.7 mm 3 mps 757 mmHg 94%
    01:00 +20°C° 0.3 mm 4 mps 756 mmHg 94%
    02:00 +20°C° 0.3 mm 4 mps 756 mmHg 93%
    03:00 +20°C° 0.3 mm 4 mps 755 mmHg 93%
    04:00 +20°C° 0.1 mm 4 mps 755 mmHg 92%
    05:00 +20°C° 0.1 mm 4 mps 755 mmHg 92%
    06:00 +21°C° 0.1 mm 4 mps 754 mmHg 92%
    07:00 +22°C° 0.2 mm 4 mps 755 mmHg 90%
    08:00 +23°C° 0.2 mm 4 mps 755 mmHg 87%
    09:00 +26°C° 0.2 mm 4 mps 755 mmHg 85%
    10:00 +27°C° 0 mm 4 mps 755 mmHg 82%
    11:00 +27°C° 0 mm 4 mps 755 mmHg 79%
    12:00 +28°C° 0 mm 3 mps 755 mmHg 77%
    13:00 +27°C° 0.1 mm 4 mps 755 mmHg 79%
    14:00 +27°C° 0.1 mm 5 mps 755 mmHg 81%
    15:00 +26°C° 0.1 mm 5 mps 756 mmHg 82%
    16:00 +25°C° 0 mm 5 mps 756 mmHg 83%
    17:00 +23°C° 0 mm 4 mps 756 mmHg 83%
    18:00 +22°C° 0 mm 4 mps 757 mmHg 84%
    19:00 +21°C° 0 mm 3 mps 757 mmHg 87%
    20:00 +19°C° 0 mm 3 mps 758 mmHg 91%
    21:00 +18°C° 0 mm 3 mps 759 mmHg 94%
    22:00 +17°C° 0 mm 3 mps 759 mmHg 94%
    23:00 +16°C° 0 mm 3 mps 759 mmHg 94%
    Show more